Regional Weather Roundup
Issued by NWS

Home | Current Version | Previous Version | Text Only | Print | Product List | Glossary Off
Versions: 1 2 3 4 5 6 7 8 9 10 11 12 13 14 15 16 17 18 19 20 21 22 23 24 25 26 27 28 29 30 31 32 33 34 35 36 37 38 39 40 41 42 43 44 45 46 47 48 49 50

477
ASUS43 KDTX 262001
RWRMI
MICHIGAN HOURLY REGIONAL WEATHER ROUNDUP
NATIONAL WEATHER SERVICE DETROIT/PONTIAC MI
400 PM EDT FRI MAY 26 2017

NOTE: "FAIR" INDICATES FEW OR NO CLOUDS BELOW 12,000 FEET WITH NO
SIGNIFICANT WEATHER AND/OR OBSTRUCTION TO VISIBILITY.

MIZ047>049-052>055-059>063-066>070-074>076-081>083-262100-
SOUTHEAST LOWER MICHIGAN

CITY           SKY/WX    TMP DP  RH WIND       PRES   REMARKS
ADRIAN         MOSUNNY   71  53  52 NW8       29.86R
ALMA           CLOUDY    68  53  58 NE3       29.84F
ANN ARBOR      PTSUNNY   68  55  63 W5        29.85S
BAD AXE        CLOUDY    62  53  72 NW7       29.85S
CARO           MOSUNNY   67  55  63 W3        29.84F
DETROIT CITY   CLOUDY    66  52  60 NW7       29.85F
DETROIT        PTSUNNY   69  53  56 NW8       29.85F
FLINT          CLOUDY    67  52  58 NW6       29.85F
GROSSE ILE     PTSUNNY   68  52  55 NW6       29.84F
HILLSDALE      MOSUNNY   68  52  56 CALM      29.86S
HOWELL         CLOUDY    67  50  54 SW3       29.85S

CITY           SKY/WX    TMP DP  RH WIND       PRES   REMARKS
JACKSON        MOSUNNY   69  53  56 W5        29.86R
LAMBERTVILLE   CLOUDY    71  55  58 NW3       29.85S
LANSING        CLOUDY    69  50  50 NE3       29.86S
LAPEER         CLOUDY    64  53  67 NW6       29.86S
MASON          CLOUDY    66  53  61 N3        29.86R
MONROE         PTSUNNY   69  53  55 NW3       29.85R
MT. CLEMENS    PTSUNNY   66  55  67 NW10      29.83F
PONTIAC        CLOUDY    65  52  62 N7        29.84F
PORT HOPE        N/A     56  53  90 NW7       29.84R
PORT HURON     CLOUDY    63  52  67 W5        29.85R
TRI CITIES     CLOUDY    67  54  63 SW7       29.84F
MIDLAND        CLOUDY    70  52  51 W7        29.83F
TROY           CLOUDY    66  52  60 W7        29.86F
SAGINAW HB     CLOUDY    68  50  52 NW7       29.84S
$$
MIZ043>046-050>051-056>058-064>065-071>073-077>080-262100-
SOUTHWEST LOWER MICHIGAN

CITY           SKY/WX    TMP DP  RH WIND       PRES   REMARKS
BATTLE CREEK   PTSUNNY   70  53  54 CALM      29.86R
BENTON HARBOR  CLOUDY    64  53  67 VRB5      29.84F
BIG RAPIDS     MOSUNNY   69  48  46 CALM      29.83S
COLDWATER      CLOUDY    68  56  67 CALM      29.86S
FREMONT        PTSUNNY   70  46  42 CALM      29.83R
HOLLAND        CLOUDY    64  52  64 W7        29.87R
GRAND RAPIDS   PTSUNNY   69  52  54 CALM      29.85R
IONIA          PTSUNNY   68  52  55 CALM      29.85R
KALAMAZOO      CLOUDY    71  51  49 CALM      29.86R
LUDINGTON      PTSUNNY   67  53  62 W8        29.84S
MARSHALL       PTSUNNY   69  54  58 SE5       29.86S
MOUNT PLEASANT PTSUNNY   70  50  49 N3        29.83F
MUSKEGON       CLOUDY    59  51  75 SW12      29.87R
SOUTH HAVEN    LGT RAIN  59  56  88 CALM      29.86S
$$
MIZ016>042-262100-
NORTHERN LOWER MICHIGAN

CITY           SKY/WX    TMP DP  RH WIND       PRES   REMARKS
ALPENA         PTSUNNY   67  52  58 N9        29.83S
BEAVER ISLAND  MOSUNNY   59  51  73 SW8       29.86R
BELLAIRE       SUNNY     68  52  56 W5        29.84R
CADILLAC       CLOUDY    67  52  57 CALM      29.84S
CHARLEVOIX     MOSUNNY   61  53  76 W12       29.88S
FRANKFORT      CLOUDY    63  51  65 W6        29.85S
GAYLORD        CLOUDY    68  48  48 NE6       29.84R
GRAYLING       CLOUDY    67  50  54 CALM      29.84S
HARBOR SPRINGS CLOUDY    49  47  93 SW12      29.84S
HOUGHTON LAKE  CLOUDY    66  49  54 SW7       29.84S
MANISTEE       PTSUNNY   63  52  67 NW8       29.84F
OSCODA         CLOUDY    63  54  73 E5        29.83S
PELLSTON       SUNNY     71  46  40 VRB3      29.83S
ROGERS CITY    SUNNY     65  53  65 NE5       29.84F
TRAVERSE CITY  CLOUDY    69  51  52 NE8       29.82F
$$
MIZ007>008-015-262100-
EASTERN UPPER MICHIGAN

CITY           SKY/WX    TMP DP  RH WIND       PRES   REMARKS
KINROSS        CLOUDY    69  50  50 SE5       29.82S
MACKINAC ISLAN SUNNY     67  50  54 S7        29.83S
NEWBERRY       PTSUNNY   69  53  55 S9G16     29.81S
S. S. MARIE    SUNNY     72  51  47 VRB3      29.80S
MUNISING         N/A     54  49  83 NE3       29.82S
$$
MIZ004>006-011>014-085-262100-
CENTRAL UPPER MICHIGAN

CITY           SKY/WX    TMP DP  RH WIND       PRES   REMARKS
MANISTIQUE     MOSUNNY   60  50  69 SW10      29.83S
ESCANABA       SUNNY     66  50  56 S10       29.85S
MENOMINEE      CLOUDY    66  54  65 SE8       29.85S
SAWYER-GWINN   PTSUNNY   70  48  46 S6        29.82F
$$
MIZ001>003-009>011-084-262100-
WESTERN UPPER MICHIGAN

CITY           SKY/WX    TMP DP  RH WIND       PRES   REMARKS
IRON MOUNTAIN  CLOUDY    68  52  56 S7        29.82R
HOUGHTON       CLOUDY    62  48  60 E12       29.79S
COPPER HARBOR    N/A     65  49  56 VRB7      29.78F
IRONWOOD       CLOUDY    69  55  60 S6        29.77S
$$

ABBREVIATIONS USED IN REMARKS
   TC - TEMPERATURE IN CELSIUS
  WCI - WIND CHILL INDEX
   HX - HEAT INDEX
  VSB - VISIBILITY





USA.gov is the U.S. government's official web portal to all federal, state and local government web resources and services.